TimeMST,TemperatureF,Dew PointF,Humidity,Sea Level PressureIn,VisibilityMPH,Wind Direction,Wind SpeedMPH,Gust SpeedMPH,PrecipitationIn,Events,Conditions,WindDirDegrees,DateUTC
12:53 AM,34.0,18.0,52,29.68,10.0,SW,27.6,38.0,N/A,,Clear,220,2012-12-12 07:53:00
1:53 AM,35.1,17.1,48,29.65,10.0,SW,28.8,40.3,N/A,,Clear,220,2012-12-12 08:53:00
2:53 AM,34.0,17.1,50,29.65,10.0,SSW,34.5,44.9,N/A,,Clear,210,2012-12-12 09:53:00
3:53 AM,34.0,16.0,48,29.65,10.0,SSW,29.9,40.3,N/A,,Clear,210,2012-12-12 10:53:00
4:53 AM,34.0,16.0,48,29.66,10.0,SW,29.9,41.4,N/A,,Clear,220,2012-12-12 11:53:00
5:53 AM,33.1,16.0,50,29.67,10.0,SSW,28.8,39.1,N/A,,Clear,210,2012-12-12 12:53:00
6:53 AM,30.0,15.1,54,29.70,10.0,SW,17.3,-,N/A,,Clear,220,2012-12-12 13:53:00
7:53 AM,33.1,15.1,48,29.69,10.0,SW,21.9,-,N/A,,Clear,230,2012-12-12 14:53:00
8:53 AM,36.0,14.0,41,29.66,10.0,SW,29.9,44.9,N/A,,Clear,220,2012-12-12 15:53:00
9:53 AM,39.9,14.0,35,29.68,10.0,SW,32.2,47.2,N/A,,Clear,230,2012-12-12 16:53:00
10:53 AM,43.0,15.1,32,29.66,10.0,SW,32.2,40.3,N/A,,Clear,220,2012-12-12 17:53:00
11:53 AM,45.0,14.0,29,29.64,10.0,SW,25.3,38.0,N/A,,Clear,220,2012-12-12 18:53:00
12:53 PM,44.1,14.0,30,29.64,10.0,SW,32.2,40.3,N/A,,Clear,220,2012-12-12 19:53:00
1:53 PM,46.9,14.0,27,29.63,10.0,SW,29.9,41.4,N/A,,Clear,230,2012-12-12 20:53:00
2:53 PM,46.9,15.1,28,29.65,10.0,WSW,26.5,39.1,N/A,,Clear,250,2012-12-12 21:53:00
3:53 PM,45.0,14.0,29,29.68,10.0,WSW,27.6,43.7,N/A,,Clear,240,2012-12-12 22:53:00
4:53 PM,42.1,14.0,32,29.71,10.0,WSW,21.9,33.4,N/A,,Clear,240,2012-12-12 23:53:00
5:53 PM,39.0,14.0,36,29.75,10.0,SW,19.6,25.3,N/A,,Clear,230,2012-12-13 00:53:00
6:53 PM,39.0,15.1,38,29.79,10.0,SW,20.7,33.4,N/A,,Clear,230,2012-12-13 01:53:00
7:53 PM,36.0,15.1,43,29.81,10.0,SW,15.0,-,N/A,,Clear,220,2012-12-13 02:53:00
8:53 PM,33.1,16.0,50,29.83,10.0,SSW,16.1,-,N/A,,Clear,210,2012-12-13 03:53:00
9:53 PM,30.0,17.1,59,29.87,10.0,SW,10.4,-,N/A,,Clear,230,2012-12-13 04:53:00
10:53 PM,27.0,16.0,63,29.90,10.0,SW,10.4,-,N/A,,Clear,220,2012-12-13 05:53:00
11:53 PM,23.0,14.0,68,29.92,10.0,West,4.6,-,N/A,,Scattered Clouds,260,2012-12-13 06:53:00